Location: Newark
(47.5833°N, 8.1500°E)
Time: 03:44:34
(UTC+00:00)

Vanguard 1 - Pass Details

Date: 01 November 2020
Orbit: 650 x 3833 km, 34.2° (Epoch: 26 November)

Event Time Altitude Azimuth Distance (km) Brightness Sun altitude
Rises 15:24:17 0° 272° (W) 7,914 15.8 6.0°
Reaches altitude 10° 15:29:59 10° 267° (W) 6,941 15.8 5.2°
Maximum altitude 15:50:59 46° 204° (SSW) 4,022 13.7 2.0°
Drops below altitude 10° 16:05:42 10° 137° (SE) 4,994 13.5 -0.2°
Sets 16:09:02 0° 131° (SE) 5,632 13.7 -0.8°
